This is the latest recevied weather packets stored in our database for station/object S56VIL-11. If no packets are shown the sender has not sent any weather packets the latest 10 day(s).
| Time | Temp. | Humidity | Pressure | Rain* | Wind** | Luminosity | Snow |
|---|---|---|---|---|---|---|---|
| 1787993165 | 29.44° C | 67% | 1029.5 hPa | - | - | - | - |
| 1787991365 | 25.56° C | 68% | 1029.4 hPa | - | - | - | - |
| 1787990472 | 25° C | 68% | 1029.1 hPa | - | - | - | - |
| 1787989565 | 25° C | 68% | 1029.1 hPa | - | - | - | - |
| 1787988668 | 23.89° C | 68% | 1029 hPa | - | - | - | - |
| 1787987765 | 22.22° C | 69% | 1028.9 hPa | - | - | - | - |
| 1787986868 | 21.11° C | 70% | 1028.8 hPa | - | - | - | - |
| 1787985964 | 20.56° C | 70% | 1028.6 hPa | - | - | - | - |
| 1787985067 | 20.56° C | 70% | 1028.8 hPa | - | - | - | - |
| 1787984164 | 20.56° C | 70% | 1028.8 hPa | - | - | - | - |
| 1787983267 | 20° C | 71% | 1028.8 hPa | - | - | - | - |
| 1787982364 | 20° C | 70% | 1028.6 hPa | - | - | - | - |
| 1787981467 | 20.56° C | 71% | 1028.6 hPa | - | - | - | - |
| 1787980563 | 19.44° C | 71% | 1028.3 hPa | - | - | - | - |
| 1787978763 | 18.89° C | 71% | 1028 hPa | - | - | - | - |
| 1787977866 | 18.89° C | 71% | 1028 hPa | - | - | - | - |
| 1787976963 | 19.44° C | 71% | 1027.9 hPa | - | - | - | - |
| 1787976066 | 19.44° C | 71% | 1027.9 hPa | - | - | - | - |
| 1787975162 | 18.89° C | 72% | 1027.9 hPa | - | - | - | - |
| 1787974265 | 18.89° C | 72% | 1028 hPa | - | - | - | - |
| 1787973362 | 19.44° C | 71% | 1028 hPa | - | - | - | - |
| 1787971561 | 21.67° C | 68% | 1027.8 hPa | - | - | - | - |
| 1787970664 | 21.11° C | 69% | 1027.7 hPa | - | - | - | - |
| 1787969761 | 21.67° C | 68% | 1027.9 hPa | - | - | - | - |
| 1787968864 | 21.11° C | 69% | 1027.8 hPa | - | - | - | - |
* Rain since midnight (hover to see other rain measurements)
** Current wind speed in m/s (hover to see current wind gust speed)